Regional Weather Roundup
Issued by NWS

Home | Current Version | Previous Version | Graphics & Text | Print | Product List | Glossary On
Versions: 1 2 3 4 5 6 7 8 9 10 11 12 13 14 15 16 17 18 19 20 21 22 23 24 25 26 27 28 29 30 31 32 33 34 35 36 37 38 39 40 41 42 43 44 45 46 47 48 49 50
140
ASUS44 KLIX 242105
RWRLA
LOUISIANA WEATHER ROUNDUP
NATIONAL WEATHER SERVICE NEW ORLEANS LA
400 PM CDT THU APR 24 2014

NOTE: "FAIR" INDICATES FEW OR NO CLOUDS BELOW 12,000 FEET WITH NO
      SIGNIFICANT WEATHER AND/OR OBSTRUCTIONS TO VISIBILITY.
      SKY/WX - SKY CONDITION AND SIGNIFICANT WEATHER.
      TMP - AIR TEMPERATURE.    DP   - DEWPOINT TEMPERATURE.
      RH  - RELATIVE HUMIDITY.  PRES - PRESSURE.
      HX  - HEAT INDEX.         WCI  - WIND CHILL INDEX.

*  THESE STATIONS ARE NOT NWS OR FAA STATIONS AND ARE NOT UNDER
   NWS QUALITY CONTROL.

LAZ040-048-061>063-065-066-069-242200-
SOUTHEAST LOUISIANA

CITY           SKY/WX    TMP DP  RH WIND       PRES   REMARKS
N.O. AUDUBON     N/A     82  66  58 MISG        N/A
N.O. INTL ARPT PTSUNNY   81  65  58 S15       29.91F
N.O. LAKEFRONT PTSUNNY   81  65  58 S18       29.92F
N.O. DOWNTOWN* MOCLDY    82  64  54 S13G20    29.93F
SLIDELL        MOSUNNY   81  63  54 S10G18    29.91F
BATON ROUGE    MOSUNNY   84  64  50 S12G18    29.87F
BOOTHVILLE     MOSUNNY   75  66  73 S10       29.95F
BELLE CHASSE   PTSUNNY   79  66  64 S13       29.93F
BOGALUSA*        N/A     84  60  44 S10       29.92S
GALLIANO*      PTCLDY    81  65  59 S10       29.94F
NEW ROADS*     FAIR      81  64  56 SE18      29.84F
GONZALES*      FAIR      82  66  57 S10G16    29.87F
HAMMOND*       MOSUNNY   84  61  45 S13       29.91F
HOUMA*         MOSUNNY   81  64  57 S14       29.93F
PORT FOURCHON* PTCLDY    75  66  73 S8G14     29.96F

$$

LAZ041-044-053-054-242200-
SOUTHWEST LOUISIANA

CITY           SKY/WX    TMP DP  RH WIND       PRES   REMARKS
LAKE CHARLES   CLOUDY    76  66  71 SW12G21   29.89S
LAFAYETTE      PTSUNNY   79  65  62 SW17      29.88F
PATTERSON      MOSUNNY   79  66  65 S15         N/A
SALT POINT       N/A     78  69  73 VRB7      29.88F
NEW IBERIA     PTSUNNY   80  65  59 S15       29.89S
CHENAULT AIRPK PTSUNNY   79  64  61 S13G18    29.90S

$$

LAZ027-028-242200-
CENTRAL LOUISIANA

CITY           SKY/WX    TMP DP  RH WIND       PRES   REMARKS
FORT POLK      CLOUDY    79  63  57 S16       29.84F
ALEXANDRIA INT CLOUDY    81  65  58 S17       29.83F
ALEXANDRIA     CLOUDY    81  66  60 SW9       29.84F

$$

LAZ001-002-242200-
NORTHWEST LOUISIANA

CITY           SKY/WX    TMP DP  RH WIND       PRES   REMARKS
SHREVEPORT     CLOUDY    75  64  68 SW9       29.80F
BARKSDALE AFB  CLOUDY    75  65  72 SW10      29.80R
DTN SHREVEPORT CLOUDY    75  64  68 SW14      29.80S

$$

LAZ014-016-242200-
NORTHEAST LOUISIANA

CITY           SKY/WX    TMP DP  RH WIND       PRES   REMARKS
MONROE         CLOUDY    78  65  63 S8G18     29.80F
TALLULAH       PTSUNNY   82  62  50 S14G25    29.81

$$




USA.gov is the U.S. government's official web portal to all federal, state and local government web resources and services.